Miscellaneous Local Product
Issued by NWS North Platte, NE

Home | Current Version | Previous Version | Graphics & Text | Print | Product List | Glossary On
Versions: 1 2 3 4 5 6 7 8 9 10 11 12 13 14 15 16 17 18 19 20 21 22 23 24 25 26 27 28 29 30 31 32 33 34 35 36 37 38 39 40 41 42 43 44 45 46 47 48 49 50
000
AXUS43 KLBF 271910
MISLBF


WESTERN AND NORTH CENTRAL NEBRASKA HOURLY WEATHER ROUNDUP
NATIONAL WEATHER SERVICE NORTH PLATTE NE
200 PM CDT TUE JUN 27 2017

NOTE: "FAIR" INDICATES FEW OR NO CLOUDS BELOW 12,000 FEET WITH NO
SIGNIFICANT WEATHER AND/OR OBSTRUCTIONS TO VISIBILITY.

NOTE: STATIONS NOT REPORTING VARIABLES SUCH AS SKY/WEATHER OR
PRESSURE ARE PROVIDED BY RAWS AND APRS NETWORKS AND ARE NOT UNDER
NATIONAL WEATHER SERVICE QUALITY CONTROL.

...OBSERVATIONS IN AND NEAR THE EASTERN PANHANDLE OF NEBRASKA...

CITY           SKY/WX    TMP DP  RH WIND       PRES   REMARKS
PINE RIDGE     PTSUNNY   86  60  41 S21G28    29.71F
GORDON         FAIR      81  57  43 SW17G23   29.74S
CHADRON        CLOUDY    92  52  25 W16G22    29.69F
ALLIANCE       SUNNY     84  56  38 S18G24    29.77F
SIDNEY         SUNNY     89  55  31 S13G21    29.82F
CRESCENT LAKE    N/A     79  58  47 S10G22      N/A
$$

...OBSERVATIONS IN NORTHERN NEBRASKA AND FAR SOUTHERN SOUTH DAKOTA...

CITY           SKY/WX    TMP DP  RH WIND       PRES   REMARKS
WINNER         FAIR      87  58  37 S28G38    29.71F
VALENTINE      SUNNY     87  57  35 S29G39    29.73F
THEDFORD       SUNNY     82  62  50 SE25G35   29.80F
AINSWORTH      CLOUDY    81  61  49 S24G32    29.78F
O`NEILL        SUNNY     80  57  45 SE23G35   29.83F
ORD            SUNNY     81  59  47 S18G29    29.85F
BROKEN BOW     MOSUNNY   81  63  54 S23G31    29.86F
VALENTINE NWR    N/A     81  62  52 S22G30      N/A
HALSEY           N/A     79  60  51 S14G28      N/A
BUTTE            N/A     80  57  45 S23G39      N/A
CHAMBERS         N/A     83  59  43 W6          N/A
EWING            N/A     80  61  52 S12G23      N/A
$$

...OBSERVATIONS IN SOUTHWEST NEBRASKA AND FAR NORTHEAST COLORADO...

CITY           SKY/WX    TMP DP  RH WIND       PRES   REMARKS
WRAY           FAIR      90  55  31 SE17G24   29.81F
IMPERIAL       SUNNY     85  58  39 S20G30    29.82F
OGALLALA       SUNNY     83  57  40 S14G26    29.81F
NORTH PLATTE   PTSUNNY   75  62  64 SE18G24   29.83F
MCCOOK         SUNNY     80  65  59 SE22      29.84F
LEXINGTON      CLOUDY    76  64  65 S17G24    29.88F
STAPLETON        N/A     75  63  66 NE5G14      N/A
GOTHENBURG       N/A     67  59  74 S9          N/A
CALLAWAY         N/A     74  65  74 S23         N/A
$$

...OBSERVATIONS IN CENTRAL LINCOLN COUNTY AREA...

CITY           SKY/WX    TMP DP  RH WIND       PRES   REMARKS
N.P. AIRPORT   PTSUNNY   75  62  64 SE18G24   29.83F
N.P. DOWNTOWN    N/A     72  63  73 SE3G12      N/A
N.P. SOUTHEAST   N/A     72  62  71 SE9G17      N/A
N.P. HILLCREST   N/A     70  62  77 SE15G22     N/A
$$

...SOME OBSERVATIONS FROM AROUND THE REGION...

CITY           SKY/WX    TMP DP  RH WIND       PRES   REMARKS
DENVER         CLOUDY    93  32  11 W9        29.87F
LIMON          CLOUDY    80  40  23 SE16      29.91F
ASPEN          CLOUDY    80  25  13 VRB7G18   30.16S
LARAMIE        CLOUDY    82  22  11 W26G37    29.99F
CASPER         MOSUNNY   83  38  20 NW15G28   29.86S
CHEYENNE       CLOUDY    84  39  20 S13       29.90F
SCOTTSBLUFF    MOSUNNY   90  51  26 SW7       29.76F
GRAND ISLAND   MOSUNNY   79  64  60 SE22G30   29.89F
OMAHA          PTSUNNY   78  58  49 S15G24    29.97F
SIOUX FALLS    MOSUNNY   75  54  47 S16G28    29.90F
PIERRE         MOSUNNY   86  58  38 S25G33    29.64F
RAPID CITY     CLOUDY    84  57  39 VRB3      29.66S
BISMARCK       MOSUNNY   84  56  38 S21G32    29.62F
KANSAS CITY    PTSUNNY   78  63  59 SE13G26   30.02F
HILL CITY      SUNNY     92  62  36 S14G23    29.84F HX  92
WICHITA        MOSUNNY   88  71  57 S18G26    29.94F HX  94
DODGE CITY     SUNNY     91  57  31 S18G31    29.91F
OKLAHOMA CITY  PTSUNNY   90  65  43 S14G20    29.99F HX  92
DALLAS         PTSUNNY   90  70  51 S8        29.97F HX  95
AMARILLO       SUNNY     87  60  40 S18G25    30.04F
$$




USA.gov is the U.S. government's official web portal to all federal, state and local government web resources and services.